sat.trackr.live / text

‹ back to catalog

STARLINK-2598

NORAD 48385 · 2021-038AJ

PAYLOAD ACTIVE UNKNOWN

§ Identity

Operator
Country
US
Launch date
2021-05-04
Launch site
AFETR
Launch vehicle
Mass (kg)
RCS (m²)

Purposes: comms

External: N2YO · Heavens-Above · Gunter

§ Orbital elements

Epoch: 2026-09-19T16:52:01.855200Z

Period
94.01 min
Inclination
53.1593°
Eccentricity
0.0000909
Mean motion
15.31694423 rev/d
Perigee alt
470.1 km
Apogee alt
471.4 km
Semi-major
6,848.9 km
B*
6.8529e-5
RAAN
162.5196°
Arg perigee
93.6626°
Mean anomaly
266.4480°
Rev number
29,821

§ Raw data

STARLINK-25981 48385U 21038AJ  26262.70279925  .00001762  00000+0  68529-4 0  99902 48385  53.1593 162.5196 0000909  93.6626 266.4480 15.31694423298216

JSON: /api/v1/satellites/48385 · /tle

For live sub-satellite position, see the globe view (requires WebGL).

§ Visibility from observer

Set your observer location to see the next 7 days of passes ≥ 10°. The values pass through the URL so the page stays shareable.

No JS? Fill the form by hand. The geolocation button needs JavaScript.